Location: Amherst
(42.5000°N, 72.5000°W)
Time: 15:55:47
(UTC-04:00)

ISS - Pass Details

Date: 15 March 2018
Orbit: 403 x 408 km, 51.6° (Epoch: 20 September)

Event Time Altitude Azimuth Distance (km) Brightness Sun altitude
Exits shadow 04:05:58 10° 49° (NE) 1,468 -0.2 -32.0°
Drops below altitude 10° 04:06:03 10° 50° (NE) 1,492 -0.1 -32.0°
Sets 04:08:38 0° 71° (ENE) 2,349 1.1 -31.6°
